Location: Ebenezer
(18.2167°N, 63.0667°W)
Time: 10:59:05
(UTC+00:00)

BLOCK DM-SL R/B - Pass Details

Date: 26 January 2020
Orbit: 243 x 27921 km, 0.3° (Epoch: 25 February)

Event Time Altitude Azimuth Distance (km) Brightness Sun altitude
Rises 23:28:54 0° 255° (WSW) 8,073 8.8 -20.4°
Reaches altitude 10° 23:40:38 10° 227° (SW) 3,313 6.1 -23.1°
Maximum altitude 23:42:26 11° 213° (SSW) 2,687 5.4 -23.5°
Drops below altitude 10° 23:43:48 10° 198° (SSW) 2,333 4.9 -23.8°
Enters shadow 23:45:52 - 169° (SSE) 2,165 4.4 -24.3°
